| time (UTC) | temp F | wind direction | speed MPH | gust MPH | rain 1hr in | rain 24hr in | rain mn in | humidity % | barometer mb |
| 20260831005745 | 81 | 243 | 0.0 | 0.0 | 0.00 | 0.00 | 0.00 | 81 | 1017.5 |
| 20260831004743 | 82 | 242 | 0.0 | 0.0 | 0.00 | 0.00 | 0.00 | 79 | 1017.5 |
| 20260831004243 | 82 | 243 | 0.0 | 0.0 | 0.00 | 0.00 | 0.00 | 79 | 1017.4 |
| 20260831003744 | 82 | 242 | 0.0 | 0.0 | 0.00 | 0.00 | 0.00 | 78 | 1017.4 |
| 20260831003240 | 82 | 243 | 0.0 | 0.0 | 0.00 | 0.00 | 0.00 | 78 | 1017.3 |
| 20260831002737 | 83 | 242 | 0.0 | 0.0 | 0.00 | 0.00 | 0.00 | 78 | 1017.3 |
| 20260831001644 | 84 | 242 | 0.0 | 0.0 | 0.00 | 0.00 | 0.00 | 76 | 1017.3 |
| 20260831001140 | 84 | 242 | 0.0 | 0.0 | 0.00 | 0.00 | 0.00 | 75 | 1017.3 |
| 20260831000612 | 84 | 242 | 0.0 | 0.0 | 0.00 | 0.00 | 0.00 | 74 | 1017.2 |
| 20260831000107 | 85 | 242 | 0.0 | 0.0 | 0.00 | 0.00 | 0.00 | 72 | 1017.2 |
| 20260830235557 | 85 | 243 | 0.0 | 0.0 | 0.00 | 0.00 | 0.00 | 72 | 1017.3 |
| 20260830234526 | 86 | 242 | 0.0 | 0.0 | 0.00 | 0.00 | 0.00 | 71 | 1017.2 |
| 20260830234025 | 86 | 242 | 0.0 | 0.0 | 0.00 | 0.00 | 0.00 | 71 | 1017.2 |
| 20260830233516 | 86 | 242 | 0.0 | 0.0 | 0.00 | 0.00 | 0.00 | 68 | 1017.2 |
| 20260830232952 | 87 | 243 | 0.0 | 0.0 | 0.00 | 0.00 | 0.00 | 67 | 1017.1 |
| 20260830232455 | 87 | 242 | 0.0 | 0.0 | 0.00 | 0.00 | 0.00 | 65 | 1017.1 |
| 20260830231928 | 87 | 242 | 0.0 | 0.0 | 0.00 | 0.00 | 0.00 | 63 | 1017.2 |
| 20260830231429 | 88 | 245 | 0.0 | 0.0 | 0.00 | 0.00 | 0.00 | 66 | 1017.1 |
| 20260830230915 | 88 | 245 | 0.0 | 0.0 | 0.00 | 0.00 | 0.00 | 65 | 1017.1 |
| 20260830230413 | 88 | 245 | 0.0 | 1.0 | 0.00 | 0.00 | 0.00 | 62 | 1017.1 |
| 20260830225913 | 88 | 245 | 0.0 | 1.0 | 0.00 | 0.00 | 0.00 | 61 | 1017.0 |
| 20260830225414 | 89 | 170 | 0.0 | 1.0 | 0.00 | 0.00 | 0.00 | 69 | 1017.0 |
| 20260830224851 | 89 | 170 | 0.0 | 1.0 | 0.00 | 0.00 | 0.00 | 64 | 1017.0 |
| 20260830223307 | 90 | 169 | 0.0 | 1.0 | 0.00 | 0.00 | 0.00 | 61 | 1016.9 |
| 20260830222249 | 89 | 315 | 0.0 | 1.0 | 0.00 | 0.00 | 0.00 | 61 | 1016.9 |
| 20260830221747 | 90 | 261 | 0.0 | 1.0 | 0.00 | 0.00 | 0.00 | 57 | 1016.9 |
| 20260830221223 | 90 | 210 | 0.0 | 5.0 | 0.00 | 0.00 | 0.00 | 61 | 1016.9 |
| 20260830220709 | 90 | 209 | 0.0 | 5.0 | 0.00 | 0.00 | 0.00 | 58 | 1016.9 |
| 20260830215157 | 90 | 67 | 0.0 | 5.0 | 0.00 | 0.00 | 0.00 | 59 | 1017.0 |
| 20260830213653 | 90 | 219 | 0.0 | 4.0 | 0.00 | 0.00 | 0.00 | 58 | 1017.0 |
| 20260830213151 | 90 | 159 | 0.0 | 1.0 | 0.00 | 0.00 | 0.00 | 59 | 1017.1 |
| 20260830212647 | 90 | 157 | 0.0 | 0.0 | 0.00 | 0.00 | 0.00 | 59 | 1017.1 |
| 20260830212146 | 90 | 157 | 0.0 | 1.0 | 0.00 | 0.00 | 0.00 | 60 | 1017.1 |
| 20260830211622 | 90 | 159 | 0.0 | 1.0 | 0.00 | 0.00 | 0.00 | 60 | 1017.1 |
| 20260830211059 | 90 | 198 | 0.0 | 1.0 | 0.00 | 0.00 | 0.00 | 61 | 1017.2 |
| 20260830210557 | 90 | 196 | 0.0 | 1.0 | 0.00 | 0.00 | 0.00 | 61 | 1017.2 |
| 20260830210110 | 91 | 196 | 0.0 | 4.0 | 0.00 | 0.00 | 0.00 | 59 | 1017.2 |
| 20260830205531 | 91 | 252 | 0.0 | 4.0 | 0.00 | 0.00 | 0.00 | 58 | 1017.2 |
| 20260830205028 | 91 | 178 | 0.0 | 0.0 | 0.00 | 0.00 | 0.00 | 60 | 1017.3 |
| 20260830203955 | 91 | 178 | 0.0 | 6.0 | 0.00 | 0.00 | 0.00 | 58 | 1017.5 |
| 20260830203438 | 90 | 194 | 1.0 | 6.0 | 0.00 | 0.00 | 0.00 | 57 | 1017.5 |
| 20260830202929 | 90 | 219 | 1.0 | 8.0 | 0.00 | 0.00 | 0.00 | 58 | 1017.6 |
| 20260830202429 | 90 | 188 | 1.0 | 8.0 | 0.00 | 0.00 | 0.00 | 58 | 1017.6 |
| 20260830201939 | 90 | 250 | 0.0 | 5.0 | 0.00 | 0.00 | 0.00 | 59 | 1017.7 |
| 20260830201416 | 90 | 186 | 0.0 | 5.0 | 0.00 | 0.00 | 0.00 | 59 | 1017.7 |
| 20260830200913 | 90 | 182 | 0.0 | 1.0 | 0.00 | 0.00 | 0.00 | 59 | 1017.8 |
| 20260830200428 | 91 | 180 | 0.0 | 1.0 | 0.00 | 0.00 | 0.00 | 59 | 1017.8 |
| 20260830195907 | 91 | 180 | 0.0 | 1.0 | 0.00 | 0.00 | 0.00 | 59 | 1017.8 |
| 20260830195407 | 91 | 324 | 0.0 | 1.0 | 0.00 | 0.00 | 0.00 | 59 | 1017.9 |
| 20260830194903 | 91 | 203 | 0.0 | 1.0 | 0.00 | 0.00 | 0.00 | 61 | 1018.1 |
| 20260830194401 | 91 | 204 | 0.0 | 1.0 | 0.00 | 0.00 | 0.00 | 60 | 1018.2 |
| 20260830193841 | 90 | 171 | 0.0 | 0.0 | 0.00 | 0.00 | 0.00 | 62 | 1018.2 |
| 20260830193339 | 89 | 171 | 0.0 | 1.0 | 0.00 | 0.00 | 0.00 | 66 | 1018.3 |
| 20260830192837 | 90 | 173 | 0.0 | 1.0 | 0.00 | 0.00 | 0.00 | 66 | 1018.4 |
| 20260830191827 | 90 | 174 | 0.0 | 1.0 | 0.00 | 0.00 | 0.00 | 61 | 1018.4 |
| 20260830191311 | 91 | 173 | 0.0 | 1.0 | 0.00 | 0.00 | 0.00 | 61 | 1018.4 |
| 20260830190809 | 92 | 173 | 0.0 | 1.0 | 0.00 | 0.00 | 0.00 | 58 | 1018.5 |
| 20260830190316 | 92 | 173 | 0.0 | 1.0 | 0.00 | 0.00 | 0.00 | 58 | 1018.4 |
| 20260830185812 | 92 | 126 | 0.0 | 4.0 | 0.00 | 0.00 | 0.00 | 58 | 1018.5 |
| 20260830185252 | 91 | 153 | 0.0 | 4.0 | 0.00 | 0.00 | 0.00 | 60 | 1018.6 |
| 20260830184713 | 91 | 152 | 0.0 | 3.0 | 0.00 | 0.00 | 0.00 | 59 | 1018.8 |
| 20260830184210 | 91 | 148 | 0.0 | 1.0 | 0.00 | 0.00 | 0.00 | 58 | 1018.7 |
| 20260830183703 | 91 | 117 | 0.0 | 5.0 | 0.00 | 0.00 | 0.00 | 61 | 1018.7 |
| 20260830183214 | 91 | 102 | 0.0 | 5.0 | 0.00 | 0.00 | 0.00 | 59 | 1018.9 |
| 20260830182657 | 91 | 101 | 1.0 | 7.0 | 0.00 | 0.00 | 0.00 | 60 | 1019.0 |
| 20260830182136 | 91 | 330 | 1.0 | 7.0 | 0.00 | 0.00 | 0.00 | 59 | 1019.1 |
| 20260830181625 | 91 | 179 | 1.0 | 7.0 | 0.00 | 0.00 | 0.00 | 59 | 1019.2 |
| 20260830181122 | 91 | 121 | 0.0 | 6.0 | 0.00 | 0.00 | 0.00 | 59 | 1019.3 |
| 20260830180556 | 91 | 217 | 0.0 | 1.0 | 0.00 | 0.00 | 0.00 | 60 | 1019.4 |
| 20260830175549 | 91 | 163 | 0.0 | 1.0 | 0.00 | 0.00 | 0.00 | 60 | 1019.5 |
| 20260830175039 | 90 | 76 | 0.0 | 0.0 | 0.00 | 0.00 | 0.00 | 62 | 1019.5 |
| 20260830174537 | 90 | 30 | 0.0 | 1.0 | 0.00 | 0.00 | 0.00 | 62 | 1019.6 |
| 20260830174009 | 89 | 294 | 0.0 | 4.0 | 0.00 | 0.00 | 0.00 | 65 | 1019.8 |
| 20260830173506 | 89 | 189 | 0.0 | 4.0 | 0.00 | 0.00 | 0.00 | 64 | 1019.8 |
| 20260830172938 | 89 | 171 | 0.0 | 4.0 | 0.00 | 0.00 | 0.00 | 63 | 1019.9 |
| 20260830172435 | 90 | 89 | 0.0 | 4.0 | 0.00 | 0.00 | 0.00 | 64 | 1019.9 |
| 20260830171915 | 89 | 219 | 0.0 | 5.0 | 0.00 | 0.00 | 0.00 | 63 | 1020.0 |
| 20260830171411 | 89 | 215 | 0.0 | 5.0 | 0.00 | 0.00 | 0.00 | 64 | 1020.1 |
| 20260830170910 | 88 | 268 | 0.0 | 4.0 | 0.00 | 0.00 | 0.00 | 65 | 1020.1 |
| 20260830170418 | 88 | 163 | 0.0 | 4.0 | 0.00 | 0.00 | 0.00 | 68 | 1020.2 |
| 20260830165839 | 88 | 78 | 0.0 | 6.0 | 0.00 | 0.00 | 0.00 | 67 | 1020.2 |
| 20260830165334 | 88 | 220 | 0.0 | 6.0 | 0.00 | 0.00 | 0.00 | 65 | 1020.3 |
| 20260830164826 | 88 | 0 | 0.0 | 5.0 | 0.00 | 0.00 | 0.00 | 67 | 1020.2 |
| 20260830164301 | 87 | 163 | 0.0 | 5.0 | 0.00 | 0.00 | 0.00 | 70 | 1020.3 |
| 20260830163734 | 86 | 215 | 0.0 | 4.0 | 0.00 | 0.00 | 0.00 | 71 | 1020.4 |
| 20260830162715 | 86 | 195 | 0.0 | 6.0 | 0.00 | 0.00 | 0.00 | 70 | 1020.5 |
| 20260830162229 | 87 | 200 | 1.0 | 7.0 | 0.00 | 0.00 | 0.00 | 70 | 1020.6 |
| 20260830161713 | 86 | 175 | 1.0 | 7.0 | 0.00 | 0.00 | 0.00 | 71 | 1020.6 |
| 20260830161210 | 86 | 237 | 0.0 | 5.0 | 0.00 | 0.00 | 0.00 | 71 | 1020.7 |
| 20260830160644 | 86 | 113 | 0.0 | 1.0 | 0.00 | 0.00 | 0.00 | 74 | 1020.7 |
| 20260830160121 | 85 | 175 | 0.0 | 1.0 | 0.00 | 0.00 | 0.00 | 74 | 1020.8 |
| 20260830155620 | 85 | 171 | 0.0 | 1.0 | 0.00 | 0.00 | 0.00 | 75 | 1020.8 |
| 20260830155121 | 85 | 171 | 0.0 | 1.0 | 0.00 | 0.00 | 0.00 | 74 | 1020.9 |
| 20260830154622 | 85 | 230 | 1.0 | 5.0 | 0.00 | 0.00 | 0.00 | 73 | 1020.9 |
| 20260830154119 | 85 | 230 | 1.0 | 5.0 | 0.00 | 0.00 | 0.00 | 71 | 1020.9 |
| 20260830153614 | 85 | 203 | 0.0 | 5.0 | 0.00 | 0.00 | 0.00 | 77 | 1020.8 |
| 20260830153048 | 84 | 205 | 1.0 | 5.0 | 0.00 | 0.00 | 0.00 | 76 | 1020.9 |
| 20260830152523 | 84 | 202 | 0.0 | 2.0 | 0.00 | 0.00 | 0.00 | 76 | 1020.8 |
| 20260830151453 | 84 | 227 | 1.0 | 9.0 | 0.00 | 0.00 | 0.00 | 76 | 1020.8 |
| 20260830150950 | 84 | 252 | 0.0 | 5.0 | 0.00 | 0.00 | 0.00 | 77 | 1020.8 |
| 20260830150422 | 84 | 177 | 1.0 | 7.0 | 0.00 | 0.00 | 0.00 | 79 | 1020.9 |
| 20260830145920 | 83 | 198 | 1.0 | 7.0 | 0.00 | 0.00 | 0.00 | 79 | 1020.8 |
| 20260830144917 | 82 | 55 | 0.0 | 5.0 | 0.00 | 0.00 | 0.00 | 81 | 1020.9 |
| 20260830144405 | 82 | 173 | 0.0 | 5.0 | 0.00 | 0.00 | 0.00 | 82 | 1020.9 |
| 20260830143842 | 82 | 88 | 0.0 | 5.0 | 0.00 | 0.00 | 0.00 | 81 | 1021.0 |
| 20260830143312 | 82 | 225 | 1.0 | 7.0 | 0.00 | 0.00 | 0.00 | 82 | 1020.8 |
| 20260830142813 | 82 | 216 | 1.0 | 7.0 | 0.00 | 0.00 | 0.00 | 82 | 1020.8 |
| 20260830142247 | 81 | 196 | 0.0 | 6.0 | 0.00 | 0.00 | 0.00 | 82 | 1020.9 |
| 20260830141732 | 81 | 191 | 1.0 | 5.0 | 0.00 | 0.00 | 0.00 | 85 | 1020.9 |
| 20260830141241 | 80 | 186 | 1.0 | 5.0 | 0.00 | 0.00 | 0.00 | 85 | 1020.9 |
| 20260830140732 | 80 | 209 | 0.0 | 4.0 | 0.00 | 0.00 | 0.00 | 86 | 1020.9 |
| 20260830140244 | 79 | 277 | 0.0 | 6.0 | 0.00 | 0.00 | 0.00 | 87 | 1021.0 |
| 20260830135709 | 79 | 236 | 0.0 | 6.0 | 0.00 | 0.00 | 0.00 | 90 | 1020.9 |
| 20260830135159 | 78 | 206 | 1.0 | 7.0 | 0.00 | 0.00 | 0.00 | 92 | 1020.8 |
| 20260830134657 | 77 | 177 | 1.0 | 7.0 | 0.00 | 0.00 | 0.00 | 95 | 1020.9 |
| 20260830134152 | 77 | 244 | 0.0 | 1.0 | 0.00 | 0.00 | 0.00 | 97 | 1021.0 |
| 20260830133655 | 76 | 189 | 0.0 | 2.0 | 0.00 | 0.00 | 0.00 | 98 | 1021.0 |
| 20260830132623 | 75 | 194 | 0.0 | 1.0 | 0.00 | 0.00 | 0.00 | 100 | 1020.9 |
| 20260830132058 | 75 | 194 | 0.0 | 0.0 | 0.00 | 0.00 | 0.00 | 100 | 1020.9 |
| 20260830131537 | 75 | 194 | 0.0 | 0.0 | 0.00 | 0.00 | 0.00 | 100 | 1020.9 |
| 20260830130456 | 74 | 194 | 0.0 | 0.0 | 0.00 | 0.00 | 0.00 | 100 | 1020.7 |
| 20260830125421 | 74 | 194 | 0.0 | 0.0 | 0.00 | 0.00 | 0.00 | 100 | 1020.5 |
| 20260830124921 | 74 | 194 | 0.0 | 0.0 | 0.00 | 0.00 | 0.00 | 100 | 1020.5 |
| 20260830124415 | 73 | 194 | 0.0 | 0.0 | 0.00 | 0.00 | 0.00 | 100 | 1020.4 |
| 20260830123357 | 73 | 194 | 0.0 | 0.0 | 0.00 | 0.00 | 0.00 | 100 | 1020.4 |
| 20260830122857 | 73 | 194 | 0.0 | 0.0 | 0.00 | 0.00 | 0.00 | 100 | 1020.4 |
| 20260830122340 | 73 | 194 | 0.0 | 0.0 | 0.00 | 0.00 | 0.00 | 100 | 1020.3 |
| 20260830121314 | 73 | 194 | 0.0 | 0.0 | 0.00 | 0.00 | 0.00 | 100 | 1020.3 |
| 20260830115747 | 73 | 194 | 0.0 | 0.0 | 0.00 | 0.00 | 0.00 | 100 | 1020.3 |
| 20260830115246 | 73 | 194 | 0.0 | 0.0 | 0.00 | 0.00 | 0.00 | 100 | 1020.2 |
| 20260830114743 | 73 | 194 | 0.0 | 0.0 | 0.00 | 0.00 | 0.00 | 100 | 1020.2 |
| 20260830114216 | 73 | 194 | 0.0 | 0.0 | 0.00 | 0.00 | 0.00 | 100 | 1020.1 |
| 20260830112636 | 73 | 194 | 0.0 | 0.0 | 0.00 | 0.00 | 0.00 | 100 | 1020.0 |
| 20260830112135 | 73 | 194 | 0.0 | 0.0 | 0.00 | 0.00 | 0.00 | 100 | 1019.9 |
| 20260830111612 | 73 | 194 | 0.0 | 0.0 | 0.00 | 0.00 | 0.00 | 100 | 1019.9 |
| 20260830111056 | 73 | 194 | 0.0 | 0.0 | 0.00 | 0.00 | 0.00 | 100 | 1019.8 |
| 20260830110535 | 73 | 194 | 0.0 | 0.0 | 0.00 | 0.00 | 0.00 | 100 | 1019.7 |
| 20260830110007 | 73 | 194 | 0.0 | 0.0 | 0.00 | 0.00 | 0.00 | 100 | 1019.6 |
| 20260830105502 | 73 | 194 | 0.0 | 0.0 | 0.00 | 0.00 | 0.00 | 100 | 1019.5 |
| 20260830104918 | 73 | 194 | 0.0 | 0.0 | 0.00 | 0.00 | 0.00 | 100 | 1019.4 |
| 20260830104349 | 73 | 194 | 0.0 | 0.0 | 0.00 | 0.00 | 0.00 | 100 | 1019.4 |
| 20260830103838 | 73 | 194 | 0.0 | 0.0 | 0.00 | 0.00 | 0.00 | 100 | 1019.3 |
| 20260830103337 | 73 | 194 | 0.0 | 0.0 | 0.00 | 0.00 | 0.00 | 100 | 1019.3 |
| 20260830102809 | 73 | 194 | 0.0 | 0.0 | 0.00 | 0.00 | 0.00 | 100 | 1019.3 |
| 20260830102247 | 73 | 194 | 0.0 | 0.0 | 0.00 | 0.00 | 0.00 | 100 | 1019.3 |
| 20260830101746 | 73 | 194 | 0.0 | 0.0 | 0.00 | 0.00 | 0.00 | 100 | 1019.2 |
| 20260830101243 | 73 | 194 | 0.0 | 0.0 | 0.00 | 0.00 | 0.00 | 100 | 1019.1 |
| 20260830100226 | 73 | 194 | 0.0 | 0.0 | 0.00 | 0.00 | 0.00 | 100 | 1019.1 |
| 20260830095702 | 73 | 194 | 0.0 | 0.0 | 0.00 | 0.00 | 0.00 | 99 | 1019.1 |
| 20260830095133 | 73 | 194 | 0.0 | 0.0 | 0.00 | 0.00 | 0.00 | 99 | 1019.1 |
| 20260830094605 | 73 | 194 | 0.0 | 0.0 | 0.00 | 0.00 | 0.00 | 99 | 1019.1 |
| 20260830093535 | 73 | 194 | 0.0 | 0.0 | 0.00 | 0.00 | 0.00 | 99 | 1019.0 |
| 20260830093019 | 73 | 194 | 0.0 | 0.0 | 0.00 | 0.00 | 0.00 | 99 | 1019.0 |
| 20260830092515 | 73 | 194 | 0.0 | 0.0 | 0.00 | 0.00 | 0.00 | 99 | 1019.0 |
| 20260830091949 | 73 | 194 | 0.0 | 0.0 | 0.00 | 0.00 | 0.00 | 99 | 1019.0 |
| 20260830091421 | 73 | 194 | 0.0 | 0.0 | 0.00 | 0.00 | 0.00 | 99 | 1019.0 |
| 20260830090919 | 73 | 194 | 0.0 | 0.0 | 0.00 | 0.00 | 0.00 | 99 | 1018.9 |
| 20260830090358 | 73 | 194 | 0.0 | 0.0 | 0.00 | 0.00 | 0.00 | 99 | 1018.9 |
| 20260830085810 | 73 | 194 | 0.0 | 0.0 | 0.00 | 0.00 | 0.00 | 99 | 1018.9 |
| 20260830085307 | 73 | 194 | 0.0 | 0.0 | 0.00 | 0.00 | 0.00 | 99 | 1018.9 |
| 20260830084743 | 73 | 194 | 0.0 | 0.0 | 0.00 | 0.00 | 0.00 | 99 | 1018.8 |
| 20260830083202 | 73 | 194 | 0.0 | 0.0 | 0.00 | 0.00 | 0.00 | 98 | 1018.8 |
| 20260830082700 | 73 | 194 | 0.0 | 0.0 | 0.00 | 0.00 | 0.00 | 98 | 1018.7 |
| 20260830082158 | 73 | 194 | 0.0 | 0.0 | 0.00 | 0.00 | 0.00 | 98 | 1018.7 |
| 20260830081658 | 74 | 194 | 0.0 | 0.0 | 0.00 | 0.00 | 0.00 | 98 | 1018.6 |
| 20260830081156 | 74 | 194 | 0.0 | 0.0 | 0.00 | 0.00 | 0.00 | 98 | 1018.6 |
| 20260830080714 | 74 | 194 | 0.0 | 0.0 | 0.00 | 0.00 | 0.00 | 98 | 1018.7 |
| 20260830080149 | 74 | 194 | 0.0 | 0.0 | 0.00 | 0.00 | 0.00 | 98 | 1018.8 |
| 20260830075121 | 74 | 194 | 0.0 | 0.0 | 0.00 | 0.00 | 0.00 | 98 | 1018.8 |
| 20260830074617 | 74 | 194 | 0.0 | 0.0 | 0.00 | 0.00 | 0.00 | 97 | 1018.6 |
| 20260830074114 | 74 | 194 | 0.0 | 0.0 | 0.00 | 0.00 | 0.00 | 97 | 1018.6 |
| 20260830073045 | 74 | 194 | 0.0 | 0.0 | 0.00 | 0.00 | 0.00 | 97 | 1018.6 |
| 20260830072508 | 74 | 194 | 0.0 | 0.0 | 0.00 | 0.00 | 0.00 | 97 | 1018.7 |
| 20260830071948 | 74 | 194 | 0.0 | 0.0 | 0.00 | 0.00 | 0.00 | 97 | 1018.7 |
| 20260830071447 | 74 | 194 | 0.0 | 0.0 | 0.00 | 0.00 | 0.00 | 97 | 1018.7 |
| 20260830070948 | 74 | 194 | 0.0 | 0.0 | 0.00 | 0.00 | 0.00 | 97 | 1018.8 |
| 20260830065930 | 75 | 194 | 0.0 | 0.0 | 0.00 | 0.00 | 0.00 | 97 | 1018.8 |
| 20260830065401 | 75 | 194 | 0.0 | 0.0 | 0.00 | 0.00 | 0.00 | 97 | 1018.7 |
| 20260830064845 | 75 | 194 | 0.0 | 0.0 | 0.00 | 0.00 | 0.00 | 97 | 1018.8 |
| 20260830064342 | 75 | 194 | 0.0 | 0.0 | 0.00 | 0.00 | 0.00 | 97 | 1018.8 |
| 20260830063839 | 75 | 194 | 0.0 | 0.0 | 0.00 | 0.00 | 0.00 | 97 | 1018.9 |
| 20260830062754 | 75 | 194 | 0.0 | 0.0 | 0.00 | 0.00 | 0.00 | 97 | 1019.0 |
| 20260830061648 | 75 | 194 | 0.0 | 0.0 | 0.00 | 0.00 | 0.00 | 97 | 1019.1 |
| 20260830061143 | 75 | 194 | 0.0 | 0.0 | 0.00 | 0.00 | 0.00 | 97 | 1019.0 |
| 20260830060640 | 75 | 194 | 0.0 | 0.0 | 0.00 | 0.00 | 0.00 | 96 | 1019.1 |
| 20260830060137 | 75 | 194 | 0.0 | 0.0 | 0.00 | 0.00 | 0.00 | 96 | 1019.2 |
| 20260830055625 | 75 | 194 | 0.0 | 0.0 | 0.00 | 0.00 | 0.00 | 96 | 1019.2 |
| 20260830055123 | 75 | 194 | 0.0 | 0.0 | 0.00 | 0.00 | 0.00 | 96 | 1019.2 |
| 20260830054557 | 75 | 194 | 0.0 | 0.0 | 0.00 | 0.00 | 0.00 | 96 | 1019.2 |
| 20260830054034 | 76 | 194 | 0.0 | 0.0 | 0.00 | 0.00 | 0.00 | 96 | 1019.2 |
| 20260830053534 | 76 | 194 | 0.0 | 0.0 | 0.00 | 0.00 | 0.00 | 95 | 1019.2 |
| 20260830053007 | 76 | 194 | 0.0 | 0.0 | 0.00 | 0.00 | 0.00 | 95 | 1019.2 |
| 20260830052500 | 76 | 194 | 0.0 | 0.0 | 0.00 | 0.00 | 0.00 | 95 | 1019.2 |
| 20260830051439 | 76 | 194 | 0.0 | 0.0 | 0.00 | 0.00 | 0.00 | 94 | 1019.3 |
| 20260830050939 | 76 | 194 | 0.0 | 0.0 | 0.00 | 0.00 | 0.00 | 94 | 1019.3 |
| 20260830045913 | 76 | 194 | 0.0 | 0.0 | 0.00 | 0.00 | 0.00 | 94 | 1019.3 |
| 20260830045409 | 76 | 194 | 0.0 | 0.0 | 0.00 | 0.00 | 0.00 | 94 | 1019.3 |
| 20260830044859 | 77 | 194 | 0.0 | 0.0 | 0.00 | 0.00 | 0.00 | 94 | 1019.3 |
| 20260830044333 | 77 | 194 | 0.0 | 0.0 | 0.00 | 0.00 | 0.00 | 94 | 1019.4 |
| 20260830043843 | 77 | 194 | 0.0 | 0.0 | 0.00 | 0.00 | 0.00 | 94 | 1019.4 |
| 20260830043305 | 77 | 194 | 0.0 | 0.0 | 0.00 | 0.00 | 0.00 | 94 | 1019.4 |
| 20260830042738 | 77 | 194 | 0.0 | 0.0 | 0.00 | 0.00 | 0.00 | 93 | 1019.4 |
| 20260830042234 | 77 | 194 | 0.0 | 0.0 | 0.00 | 0.00 | 0.00 | 93 | 1019.4 |
| 20260830041722 | 77 | 194 | 0.0 | 0.0 | 0.00 | 0.00 | 0.00 | 93 | 1019.3 |
| 20260830041223 | 77 | 194 | 0.0 | 0.0 | 0.00 | 0.00 | 0.00 | 93 | 1019.4 |
| 20260830040656 | 78 | 194 | 0.0 | 0.0 | 0.00 | 0.00 | 0.00 | 93 | 1019.4 |
| 20260830040129 | 78 | 194 | 0.0 | 0.0 | 0.00 | 0.00 | 0.00 | 93 | 1019.4 |
| 20260830034501 | 78 | 194 | 0.0 | 0.0 | 0.00 | 0.00 | 0.00 | 93 | 1019.4 |
| 20260830033442 | 78 | 194 | 0.0 | 0.0 | 0.00 | 0.00 | 0.00 | 94 | 1019.3 |
| 20260830032940 | 78 | 194 | 0.0 | 0.0 | 0.00 | 0.00 | 0.00 | 94 | 1019.2 |
| 20260830032438 | 78 | 194 | 0.0 | 0.0 | 0.00 | 0.00 | 0.00 | 94 | 1019.2 |
| 20260830031909 | 78 | 194 | 0.0 | 0.0 | 0.00 | 0.00 | 0.00 | 94 | 1019.2 |
| 20260830031409 | 78 | 194 | 0.0 | 0.0 | 0.00 | 0.00 | 0.00 | 94 | 1019.2 |
| 20260830030852 | 78 | 194 | 0.0 | 0.0 | 0.00 | 0.00 | 0.00 | 95 | 1019.1 |
| 20260830030352 | 78 | 194 | 0.0 | 0.0 | 0.00 | 0.00 | 0.00 | 95 | 1019.0 |
| 20260830025824 | 78 | 194 | 0.0 | 0.0 | 0.00 | 0.00 | 0.00 | 95 | 1018.9 |
| 20260830025310 | 78 | 194 | 0.0 | 1.0 | 0.00 | 0.00 | 0.00 | 94 | 1018.8 |
| 20260830024244 | 78 | 142 | 0.0 | 0.0 | 0.00 | 0.00 | 0.00 | 94 | 1018.9 |
| 20260830023743 | 78 | 142 | 0.0 | 0.0 | 0.00 | 0.00 | 0.00 | 94 | 1018.9 |
| 20260830023214 | 78 | 142 | 0.0 | 0.0 | 0.00 | 0.00 | 0.00 | 94 | 1018.8 |
| 20260830022713 | 78 | 142 | 0.0 | 0.0 | 0.00 | 0.00 | 0.00 | 94 | 1018.7 |
| 20260830022212 | 79 | 142 | 0.0 | 0.0 | 0.00 | 0.00 | 0.00 | 94 | 1018.5 |
| 20260830021710 | 79 | 142 | 0.0 | 0.0 | 0.00 | 0.00 | 0.00 | 94 | 1018.4 |
| 20260830020653 | 79 | 142 | 0.0 | 0.0 | 0.00 | 0.00 | 0.00 | 94 | 1018.2 |
| 20260830020151 | 79 | 142 | 0.0 | 0.0 | 0.00 | 0.00 | 0.00 | 94 | 1018.2 |
| 20260830015647 | 79 | 142 | 0.0 | 0.0 | 0.00 | 0.00 | 0.00 | 94 | 1018.2 |
| 20260830015129 | 79 | 142 | 0.0 | 0.0 | 0.00 | 0.00 | 0.00 | 93 | 1018.1 |
| 20260830014051 | 79 | 142 | 0.0 | 0.0 | 0.00 | 0.00 | 0.00 | 93 | 1017.8 |
| 20260830013527 | 79 | 142 | 0.0 | 0.0 | 0.00 | 0.00 | 0.00 | 92 | 1017.7 |
| 20260830012517 | 80 | 142 | 0.0 | 0.0 | 0.00 | 0.00 | 0.00 | 92 | 1017.4 |
| 20260830012012 | 80 | 142 | 0.0 | 0.0 | 0.00 | 0.00 | 0.00 | 91 | 1017.4 |
| 20260830010942 | 80 | 142 | 0.0 | 0.0 | 0.00 | 0.00 | 0.00 | 91 | 1017.3 |